Time,TemperatureF,DewpointF,PressureIn,WindDirection,WindDirectionDegrees,WindSpeedMPH,WindSpeedGustMPH,Humidity,HourlyPrecipIn,Conditions,Clouds,dailyrainin,SoftwareType,DateUTC
2016-07-28 00:11:00,70.0,-99.9,30.10,South,179,9.0,-999.0,-999,-99.99,,,-99.99,,2016-07-28 07:11:00,
2016-07-28 00:18:00,70.0,-99.9,30.10,SSW,194,8.0,13.0,-999,-99.99,,,-99.99,,2016-07-28 07:18:00,
2016-07-28 00:26:00,70.0,-99.9,30.10,SSW,195,9.0,12.0,-999,-99.99,,,-99.99,,2016-07-28 07:26:00,
2016-07-28 00:37:00,69.0,-99.9,30.10,SW,220,8.0,12.0,-999,-99.99,,,-99.99,,2016-07-28 07:37:00,
2016-07-28 00:49:00,69.0,-99.9,30.11,SSW,197,2.0,8.0,-999,-99.99,,,-99.99,,2016-07-28 07:49:00,
2016-07-28 00:54:00,67.0,-99.9,30.11,SSW,193,2.0,3.0,-999,-99.99,,,-99.99,,2016-07-28 07:54:00,
2016-07-28 01:05:00,67.0,-99.9,30.11,SSE,159,2.0,5.0,-999,-99.99,,,-99.99,,2016-07-28 08:05:00,
2016-07-28 01:13:00,68.0,-99.9,30.10,South,191,5.0,8.0,-999,-99.99,,,-99.99,,2016-07-28 08:13:00,
2016-07-28 01:24:00,68.0,-99.9,30.10,South,188,5.0,8.0,-999,-99.99,,,-99.99,,2016-07-28 08:24:00,
2016-07-28 01:54:00,66.0,-99.9,30.10,SSW,204,2.0,7.0,-999,-99.99,,,-99.99,,2016-07-28 08:54:00,
2016-07-28 02:04:00,66.0,-99.9,30.10,SSW,197,2.0,6.0,-999,-99.99,,,-99.99,,2016-07-28 09:04:00,
2016-07-28 02:13:00,66.0,-99.9,30.10,South,190,1.0,6.0,-999,-99.99,,,-99.99,,2016-07-28 09:13:00,
2016-07-28 02:24:00,66.0,-99.9,30.10,South,188,1.0,7.0,-999,-99.99,,,-99.99,,2016-07-28 09:24:00,
2016-07-28 02:41:00,65.0,-99.9,30.10,South,188,1.0,-999.0,-999,-99.99,,,-99.99,,2016-07-28 09:41:00,
2016-07-28 02:51:00,64.0,-99.9,30.10,South,188,1.0,-999.0,-999,-99.99,,,-99.99,,2016-07-28 09:51:00,
2016-07-28 03:13:00,64.0,-99.9,30.10,SSW,194,1.0,-999.0,-999,-99.99,,,-99.99,,2016-07-28 10:13:00,
2016-07-28 03:21:00,63.0,-99.9,30.10,SSW,194,1.0,-999.0,-999,-99.99,,,-99.99,,2016-07-28 10:21:00,
2016-07-28 03:33:00,64.0,-99.9,30.10,SSW,194,1.0,-999.0,-999,-99.99,,,-99.99,,2016-07-28 10:33:00,
2016-07-28 03:41:00,63.0,-99.9,30.10,SSW,194,2.0,-999.0,-999,-99.99,,,-99.99,,2016-07-28 10:41:00,
2016-07-28 03:53:00,63.0,-99.9,30.10,SSW,194,-999.9,-999.0,-999,-99.99,,,-99.99,,2016-07-28 10:53:00,
2016-07-28 04:13:00,63.0,-99.9,30.11,SSW,194,-999.9,-999.0,-999,-99.99,,,-99.99,,2016-07-28 11:13:00,
2016-07-28 04:23:00,63.0,-99.9,30.11,SSW,194,1.0,-999.0,-999,-99.99,,,-99.99,,2016-07-28 11:23:00,
2016-07-28 04:43:00,63.0,-99.9,30.11,SSW,194,1.0,-999.0,-999,-99.99,,,-99.99,,2016-07-28 11:43:00,
2016-07-28 04:54:00,63.0,-99.9,30.10,SSW,194,1.0,-999.0,-999,-99.99,,,-99.99,,2016-07-28 11:54:00,
2016-07-28 05:11:00,61.0,-99.9,30.11,SSW,194,2.0,-999.0,-999,-99.99,,,-99.99,,2016-07-28 12:11:00,
2016-07-28 05:19:00,61.0,-99.9,30.11,SSW,194,1.0,2.0,-999,-99.99,,,-99.99,,2016-07-28 12:19:00,
2016-07-28 05:26:00,62.0,-99.9,30.10,SSW,194,2.0,2.0,-999,-99.99,,,-99.99,,2016-07-28 12:26:00,
2016-07-28 05:37:00,62.0,-99.9,30.11,SSW,194,1.0,2.0,-999,-99.99,,,-99.99,,2016-07-28 12:37:00,
2016-07-28 05:54:00,61.0,-99.9,30.11,SSW,194,2.0,2.0,-999,-99.99,,,-99.99,,2016-07-28 12:54:00,
2016-07-28 06:00:00,61.0,-99.9,30.11,SSW,194,1.0,-999.0,-999,-99.99,,,-99.99,,2016-07-28 13:00:00,
2016-07-28 06:09:00,61.0,-99.9,30.11,SSW,194,1.0,3.0,-999,-99.99,,,-99.99,,2016-07-28 13:09:00,
2016-07-28 06:15:00,61.0,-99.9,30.11,SSW,194,2.0,3.0,-999,-99.99,,,-99.99,,2016-07-28 13:15:00,
2016-07-28 06:26:00,61.0,-99.9,30.11,SSW,198,2.0,5.0,-999,-99.99,,,-99.99,,2016-07-28 13:26:00,
2016-07-28 06:43:00,61.0,-99.9,30.11,SSW,200,3.0,6.0,-999,-99.99,,,-99.99,,2016-07-28 13:43:00,
2016-07-28 06:51:00,61.0,-99.9,30.11,SSW,201,3.0,5.0,-999,-99.99,,,-99.99,,2016-07-28 13:51:00,
2016-07-28 07:04:00,61.0,-99.9,30.12,SSW,198,2.0,5.0,-999,-99.99,,,-99.99,,2016-07-28 14:04:00,
2016-07-28 07:13:00,62.0,-99.9,30.12,SSW,198,2.0,5.0,-999,-99.99,,,-99.99,,2016-07-28 14:13:00,
2016-07-28 07:24:00,61.0,-99.9,30.12,SSW,194,4.0,5.0,-999,-99.99,,,-99.99,,2016-07-28 14:24:00,
2016-07-28 07:35:00,61.0,-99.9,30.12,SSW,195,4.0,6.0,-999,-99.99,,,-99.99,,2016-07-28 14:35:00,
2016-07-28 07:55:00,62.0,-99.9,30.12,SSW,198,4.0,8.0,-999,-99.99,,,-99.99,,2016-07-28 14:55:00,
2016-07-28 08:04:00,62.0,-99.9,30.12,SSW,198,2.0,6.0,-999,-99.99,,,-99.99,,2016-07-28 15:04:00,
2016-07-28 08:13:00,62.0,-99.9,30.13,SSW,196,5.0,8.0,-999,-99.99,,,-99.99,,2016-07-28 15:13:00,
2016-07-28 08:24:00,62.0,-99.9,30.13,SSW,196,5.0,8.0,-999,-99.99,,,-99.99,,2016-07-28 15:24:00,
2016-07-28 08:41:00,65.0,-99.9,30.13,SSW,198,-999.9,-999.0,-999,-99.99,,,-99.99,,2016-07-28 15:41:00,
2016-07-28 08:51:00,64.0,-99.9,30.13,SSW,196,2.0,-999.0,-999,-99.99,,,-99.99,,2016-07-28 15:51:00,
2016-07-28 09:11:00,66.0,-99.9,30.13,SSW,196,3.0,-999.0,-999,-99.99,,,-99.99,,2016-07-28 16:11:00,
2016-07-28 09:31:00,67.0,-99.9,30.13,SSW,200,-999.9,-999.0,-999,-99.99,,,-99.99,,2016-07-28 16:31:00,